User: anonymous   Login
Location: Newark
(7.0858°N, 171.3717°E)
Time: 17:58:31
(UTC+00:00)
Language:

Transit 4A - Orbit

View from above orbital plane
View from above orbital plane
View from above satellite
View from above satellite

Ground track
Ground track

The orbit data is extracted from the following two-line orbital elements,

1   116U 61015A   21162.84742304 -.00000032  00000-0  34369-4 0  9990
2   116  66.8112  49.6194 0069459 119.6382 241.1639 13.91791638 42325
Epoch (UTC): 11 June 2021 20:20:17
Eccentricity: 0.0069459
inclination: 66.8112°
perigee height: 871 km
apogee height: 973 km
right ascension of ascending node: 49.6194°
argument of perigee: 119.6382°
revolutions per day: 13.91791638
mean anomaly at epoch: 241.1639°
orbit number at epoch: 4232

The dashed part of the orbit path shows where the satellite is in the earth's shadow,  

DLR